Weather History for Lumberton, NC

Change the Weather History Date:

Monday, December 31, 2012

  Actual Average Record
Temperature  
Mean Temperature 41 °F 44 °F  
Max Temperature 55 °F 54 °F 68 °F (2006)
Min Temperature 26 °F 34 °F 19 °F (2000)
Degree Days  
Heating Degree Days 24 21  
Month to date heating degree days 416 584  
Since 1 July heating degree days 1014 1050  
Cooling Degree Days 0 0  
Month to date cooling degree days 2 2  
Year to date cooling degree days 2055 1909  
Moisture  
Dew Point 31 °F    
Average Humidity 65    
Maximum Humidity 92    
Minimum Humidity 38    
Precipitation  
Precipitation 0.00 in 0.08 in 0.23 in (2002)
Month to date precipitation 4.35 2.89  
Year to date precipitation 45.03 43.52  
Sea Level Pressure  
Sea Level Pressure 30.31 in    
Wind  
Wind Speed 5 mph (SW)    
Max Wind Speed 14 mph    
Max Gust Speed 20 mph    
Visibility 9 miles    
Events      
T = Trace of Precipitation, MM = Missing Value Source: NWS Daily Summary

Daily Weather History Graph

Daily Weather History Graph

Search for Another Location

Airport:

Trip Planner

Search our weather history database for the weather conditions in past years. The results will help you decide how hot, cold, wet, or windy it might be!

Date:

Astronomy

Dec. 31, 2012 Rise Set
Actual Time 7:23 AM EST 5:16 PM EST
Civil Twilight 6:55 AM EST 5:43 PM EST
Nautical Twilight 6:23 AM EST 6:15 PM EST
Astronomical Twilight 5:53 AM EST 6:46 PM EST
Moon 8:35 PM EST 9:11 AM EST
Length of Visible Light 10h 48m
Length of Day
9h 52m
Waning Gibbous, 90% of the Moon is Illuminated
Dec 31
Waning Gibbous
Jan 4
Last Quarter
Jan 11
New
Jan 18
First Quarter
Jan 26
Full

Hourly Weather History & Observations

Time (EST) Temp. Windchill Dew Point Humidity Pressure Visibility Wind Dir Wind Speed Gust Speed Precip Events Conditions
12:54 AM 28.0 °F - 26.1 °F 92% 30.38 in 9.0 mi Calm Calm - N/A   Clear
1:54 AM 28.0 °F - 26.1 °F 92% 30.37 in 9.0 mi Calm Calm - N/A   Clear
2:54 AM 28.0 °F - 26.1 °F 92% 30.38 in 8.0 mi Calm Calm - N/A   Clear
3:54 AM 27.0 °F - 25.0 °F 92% 30.38 in 9.0 mi Calm Calm - N/A   Clear
4:54 AM 27.0 °F - 24.1 °F 89% 30.38 in 9.0 mi Calm Calm - N/A   Clear
5:54 AM 26.1 °F - 24.1 °F 92% 30.40 in 7.0 mi Calm Calm - N/A   Clear
6:54 AM 26.1 °F - 25.0 °F 96% 30.39 in 7.0 mi Calm Calm - N/A   Clear
7:54 AM 28.0 °F - 27.0 °F 96% 30.39 in 7.0 mi Calm Calm - N/A   Clear
8:54 AM 32.0 °F - 28.9 °F 88% 30.41 in 7.0 mi Calm Calm - N/A   Clear
9:54 AM 37.9 °F 32.1 °F 30.0 °F 73% 30.41 in 10.0 mi SW 8.1 mph - N/A   Clear
10:54 AM 45.0 °F 41.2 °F 30.0 °F 56% 30.38 in 10.0 mi SW 6.9 mph - N/A   Clear
11:54 AM 48.9 °F - 28.9 °F 46% 30.35 in 10.0 mi WSW 10.4 mph - N/A   Clear
12:54 PM 51.1 °F - 27.0 °F 39% 30.28 in 10.0 mi WSW 13.8 mph - N/A   Clear
1:54 PM 53.1 °F - 28.0 °F 38% 30.28 in 10.0 mi SW 10.4 mph - N/A   Clear
2:54 PM 55.0 °F - 30.9 °F 40% 30.25 in 10.0 mi SW 11.5 mph - N/A   Clear
3:54 PM 55.0 °F - 36.0 °F 49% 30.22 in 10.0 mi SSW 6.9 mph - N/A   Clear
4:54 PM 53.1 °F - 39.0 °F 59% 30.22 in 10.0 mi SSW 6.9 mph - N/A   Clear
5:54 PM 50.0 °F - 39.0 °F 66% 30.22 in 10.0 mi SSW 5.8 mph - N/A   Clear
6:54 PM 50.0 °F - 39.0 °F 66% 30.22 in 10.0 mi SSW 5.8 mph - N/A   Mostly Cloudy
7:54 PM 50.0 °F - 39.0 °F 66% 30.21 in 10.0 mi WSW 4.6 mph - N/A   Overcast
8:54 PM 51.1 °F - 39.0 °F 63% 30.20 in 10.0 mi SW 4.6 mph - N/A   Overcast
10:54 PM 51.1 °F - 39.9 °F 66% 30.17 in 10.0 mi SW 5.8 mph - N/A   Overcast
11:54 PM 50.0 °F - 41.0 °F 71% 30.17 in 10.0 mi SSW 5.8 mph - N/A   Overcast